This is the latest recevied weather packets stored in our database for station/object KC9GSD. If no packets are shown the sender has not sent any weather packets the latest 10 day(s).
| Time | Temp. | Humidity | Pressure | Rain* | Wind** | Luminosity | Snow |
|---|---|---|---|---|---|---|---|
| 1777423746 | 17.22° C | 96% | 1020.5 hPa | 6.1 mm | - | 0 W/m² | - |
| 1777423442 | 17.22° C | 95% | 1019.4 hPa | 4.83 mm | - | 0 W/m² | - |
| 1777423137 | 17.22° C | 95% | 1018.6 hPa | 4.32 mm | - | 0 W/m² | - |
| 1777422832 | 17.22° C | 94% | 1018.4 hPa | 6.6 mm | - | 0 W/m² | - |
| 1777422528 | 17.22° C | 94% | 1018.8 hPa | 4.83 mm | - | 0 W/m² | - |
| 1777422223 | 17.78° C | 94% | 1019 hPa | 3.05 mm | - | 0 W/m² | - |
| 1777421923 | 17.78° C | 94% | 1019.1 hPa | 1.78 mm | - | 0 W/m² | - |
| 1777421618 | 17.78° C | 94% | 1019 hPa | 0 mm | - | 0 W/m² | - |
| 1777421313 | 17.78° C | 93% | 1019 hPa | 0 mm | - | 0 W/m² | - |
| 1777421011 | 17.78° C | 93% | 1018.9 hPa | 0 mm | - | 0 W/m² | - |
| 1777420706 | 17.78° C | 92% | 1018.3 hPa | 0 mm | - | 1 W/m² | - |
| 1777420403 | 17.78° C | 92% | 1017.8 hPa | 0 mm | - | 1 W/m² | - |
| 1777420099 | 17.78° C | 92% | 1017.1 hPa | 0 mm | - | 1 W/m² | - |
| 1777419796 | 17.78° C | 92% | 1016.7 hPa | 0 mm | - | 1 W/m² | - |
| 1777419494 | 17.78° C | 93% | 1017.1 hPa | 0 mm | - | 2 W/m² | - |
| 1777419192 | 17.78° C | 92% | 1017.1 hPa | 0 mm | - | 3 W/m² | - |
| 1777418889 | 17.78° C | 92% | 1016.9 hPa | 0 mm | - | 6 W/m² | - |
| 1777418584 | 17.78° C | 92% | 1016.7 hPa | 0 mm | - | 9 W/m² | - |
| 1777418281 | 17.78° C | 91% | 1016.8 hPa | 0 mm | - | 9 W/m² | - |
| 1777417976 | 17.78° C | 91% | 1016.7 hPa | 0 mm | - | 12 W/m² | - |
| 1777417672 | 17.78° C | 91% | 1016.6 hPa | 0 mm | - | 13 W/m² | - |
| 1777417367 | 18.33° C | 91% | 1016.6 hPa | 0 mm | - | 12 W/m² | - |
| 1777417064 | 18.33° C | 91% | 1016.8 hPa | 0 mm | - | 10 W/m² | - |
| 1777416760 | 18.33° C | 91% | 1016.2 hPa | 0 mm | - | 20 W/m² | - |
| 1777416456 | 18.33° C | 90% | 1016 hPa | 0 mm | - | 23 W/m² | - |
* Rain latest hour (hover to see other rain measurements)
** Current wind speed in m/s (hover to see current wind gust speed)